User: anonymous   Login
Location: Lawrence
(38.9720°N, 95.2350°W)
Time: 13:08:00
(UTC-05:00)
Language:

JAS-1B - Orbit

View from above orbital plane
View from above orbital plane
View from above satellite
View from above satellite

Ground track
Ground track

The orbit data is extracted from the following two-line orbital elements,

1 20480U 90013C   16180.49276367 -.00000013  00000-0  34542-4 0  9994
2 20480  99.0219  14.5944 0541020 112.6257 282.7656 12.83411567236352
Epoch (UTC): 28 June 2016 11:49:34
Eccentricity: 0.0541020
inclination: 99.0219°
perigee height: 911 km
apogee height: 1744 km
right ascension of ascending node: 14.5944°
argument of perigee: 112.6257°
revolutions per day: 12.83411567
mean anomaly at epoch: 282.7656°
orbit number at epoch: 23635

The dashed part of the orbit path shows where the satellite is in the earth's shadow,  

DLR